User: anonymous   Login
Location: Trondheim
(63.4170°N, 10.4170°E)
Time: 03:31:48
(UTC+01:00)
Language:

Iridium 82 - Orbit

View from above orbital plane
View from above orbital plane
View from above satellite
View from above satellite

Ground track
Ground track

The orbit data is extracted from the following two-line orbital elements,

1 25467U 98051A   15 63.83529880 -.00000674  00000-0  00000+0 0  9992
2 25467 086.3972 011.2389 0002696 081.7070 278.4913 14.34213080866887
Epoch (UTC): 04 March 2015 20:02:49
Eccentricity: 0.0002696
inclination: 86.3972°
perigee height: 776 km
apogee height: 779 km
right ascension of ascending node: 11.2389°
argument of perigee: 81.7070°
revolutions per day: 14.34213080
mean anomaly at epoch: 278.4913°
orbit number at epoch: 86688

The dashed part of the orbit path shows where the satellite is in the earth's shadow,  

DLR